CW5689 Weather Reports


time (UTC)temp
F
wind
direction
speed
knots
gust
knots
rain 1hr
in
rain 24hr
in
rain mn
in
humidity
%
barometer
mb
20260504024535 54 0 0.0 0.0 0.00 0.00 0.00 50 1003.3
20260504024018 55 0 0.0 0.0 0.00 0.00 0.00 50 1003.3
20260504023518 55 0 0.0 0.0 0.00 0.00 0.00 50 1003.4
20260504023035 56 0 0.0 0.0 0.00 0.00 0.00 48 1003.4
20260504022521 56 0 0.0 0.0 0.00 0.00 0.00 47 1003.4
20260504022018 57 0 0.0 0.0 0.00 0.00 0.00 47 1003.4
20260504021535 57 0 0.0 0.0 0.00 0.00 0.00 45 1003.4
20260504021017 58 0 0.0 0.0 0.00 0.00 0.00 45 1003.4
20260504020518 58 0 0.0 0.0 0.00 0.00 0.00 45 1003.4
20260504020034 59 0 0.0 0.0 0.00 0.00 0.00 44 1003.4
20260504015518 59 0 0.0 0.0 0.00 0.00 0.00 43 1003.3
20260504015026 60 0 0.0 0.0 0.00 0.00 0.00 41 1003.3
20260504014545 61 0 0.0 0.0 0.00 0.00 0.00 41 1003.4
20260504014021 61 0 0.0 0.0 0.00 0.00 0.00 40 1003.4
20260504013518 62 0 0.0 0.0 0.00 0.00 0.00 40 1003.4
20260504013041 63 0 0.0 0.0 0.00 0.00 0.00 36 1003.5
20260504012520 63 0 0.0 0.0 0.00 0.00 0.00 34 1003.5
20260504012018 64 0 0.0 0.0 0.00 0.00 0.00 33 1003.5
20260504011536 64 0 0.0 0.0 0.00 0.00 0.00 33 1003.5
20260504011018 65 0 0.0 0.0 0.00 0.00 0.00 32 1003.6
20260504010522 65 0 0.0 0.0 0.00 0.00 0.00 31 1003.6
20260504010035 66 0 0.0 0.0 0.00 0.00 0.00 30 1003.7
20260504005518 66 0 0.0 0.0 0.00 0.00 0.00 30 1003.7
20260504005018 66 0 0.0 3.5 0.00 0.00 0.00 28 1003.7
20260504004532 66 0 0.0 6.1 0.00 0.00 0.00 28 1003.7
20260504004019 67 242 0.9 6.1 0.00 0.00 0.00 29 1003.7
20260504003519 67 236 1.7 6.1 0.00 0.00 0.00 28 1003.7
20260504003031 67 0 1.7 3.5 0.00 0.00 0.00 27 1003.7
20260504002517 67 240 0.9 4.3 0.00 0.00 0.00 26 1003.7
20260504002017 68 240 2.6 10.4 0.00 0.00 0.00 26 1003.7
20260504001546 68 236 2.6 10.4 0.00 0.00 0.00 26 1003.8
20260504001017 68 215 4.3 10.4 0.00 0.00 0.00 26 1003.8
20260504000517 69 295 2.6 7.0 0.00 0.00 0.00 25 1003.8
20260504000043 69 247 1.7 7.0 0.00 0.00 0.00 24 1003.7
20260503235519 69 264 2.6 9.6 0.00 0.00 0.00 24 1003.8
20260503235017 69 279 1.7 10.4 0.00 0.00 0.00 25 1003.8
20260503234535 69 244 4.3 10.4 0.00 0.00 0.00 24 1003.7
20260503234018 69 260 2.6 13.0 0.00 0.00 0.00 23 1003.7
20260503233517 70 242 4.3 13.0 0.00 0.00 0.00 25 1003.7
20260503233036 70 279 3.5 12.2 0.00 0.00 0.00 24 1003.8
20260503232517 70 279 6.1 12.2 0.00 0.00 0.00 23 1003.8
20260503232017 70 306 5.2 11.3 0.00 0.00 0.00 23 1003.8
20260503231541 70 282 3.5 15.6 0.00 0.00 0.00 22 1003.9
20260503231018 70 235 6.1 15.6 0.00 0.00 0.00 23 1004.0
20260503230518 70 342 2.6 9.6 0.00 0.00 0.00 23 1004.1
20260503230037 70 258 6.1 12.2 0.00 0.00 0.00 23 1004.0
20260503225520 70 0 5.2 12.2 0.00 0.00 0.00 22 1004.2
20260503225017 70 274 2.6 12.2 0.00 0.00 0.00 24 1004.2
20260503224540 70 359 6.1 12.2 0.00 0.00 0.00 23 1004.1
20260503224018 70 269 2.6 11.3 0.00 0.00 0.00 24 1004.2
20260503223519 70 334 2.6 7.8 0.00 0.00 0.00 25 1004.1
20260503223036 70 237 0.0 9.6 0.00 0.00 0.00 26 1004.2
20260503222517 70 269 2.6 9.6 0.00 0.00 0.00 23 1004.2
20260503222017 70 258 3.5 8.7 0.00 0.00 0.00 25 1004.3
20260503221544 70 21 4.3 9.6 0.00 0.00 0.00 25 1004.3
20260503221018 71 32 3.5 9.6 0.00 0.00 0.00 24 1004.3
20260503220518 71 288 3.5 13.0 0.00 0.00 0.00 26 1004.4
20260503220032 71 224 4.3 13.9 0.00 0.00 0.00 22 1004.3
20260503215518 71 286 4.3 16.5 0.00 0.00 0.00 23 1004.4
20260503215018 71 342 5.2 16.5 0.00 0.00 0.00 25 1004.4
20260503214537 71 251 6.1 16.5 0.00 0.00 0.00 22 1004.4
20260503214017 71 327 2.6 13.0 0.00 0.00 0.00 24 1004.4
20260503213517 71 232 6.1 13.9 0.00 0.00 0.00 26 1004.3
20260503213037 71 227 4.3 13.9 0.00 0.00 0.00 27 1004.4
20260503212521 71 271 4.3 13.9 0.00 0.00 0.00 28 1004.5
20260503212018 71 27 4.3 14.8 0.00 0.00 0.00 27 1004.3
20260503211533 71 253 0.9 14.8 0.00 0.00 0.00 30 1004.3
20260503211020 71 278 7.8 14.8 0.00 0.00 0.00 26 1004.5
20260503210517 71 307 3.5 10.4 0.00 0.00 0.00 27 1004.4
20260503210044 70 301 4.3 10.4 0.00 0.00 0.00 28 1004.4
20260503205519 70 307 1.7 11.3 0.00 0.00 0.00 29 1004.4
20260503205018 70 280 4.3 11.3 0.00 0.00 0.00 27 1004.4
20260503204541 70 359 3.5 11.3 0.00 0.00 0.00 30 1004.5
20260503204020 70 280 3.5 15.6 0.00 0.00 0.00 27 1004.6
20260503203519 70 350 6.1 15.6 0.00 0.00 0.00 30 1004.6
20260503203038 70 288 2.6 13.0 0.00 0.00 0.00 28 1004.6
20260503202519 70 245 6.1 13.0 0.00 0.00 0.00 28 1004.8
20260503202017 70 267 4.3 10.4 0.00 0.00 0.00 29 1004.8
20260503201536 71 267 3.5 13.0 0.00 0.00 0.00 35 1004.9
20260503201017 71 0 6.1 13.0 0.00 0.00 0.00 26 1004.7
20260503200519 71 300 4.3 11.3 0.00 0.00 0.00 26 1004.8
20260503200043 71 284 5.2 13.0 0.00 0.00 0.00 26 1004.9
20260503195517 71 323 3.5 13.0 0.00 0.00 0.00 27 1004.9
20260503195017 71 290 5.2 13.0 0.00 0.00 0.00 26 1005.1
20260503194535 71 283 5.2 11.3 0.00 0.00 0.00 26 1005.0
20260503194015 71 308 5.2 12.2 0.00 0.00 0.00 30 1005.2
20260503193515 71 342 6.1 12.2 0.00 0.00 0.00 31 1005.1
20260503193035 71 26 6.1 13.0 0.00 0.00 0.00 34 1005.2
20260503192514 71 272 3.5 13.0 0.00 0.00 0.00 37 1005.2
20260503192020 71 313 4.3 13.0 0.00 0.00 0.00 34 1005.3
20260503191532 71 339 4.3 13.0 0.00 0.00 0.00 34 1005.2
20260503191022 71 286 4.3 12.2 0.00 0.00 0.00 34 1005.1
20260503190514 71 286 3.5 15.6 0.00 0.00 0.00 36 1005.3
20260503190043 71 9 5.2 15.6 0.00 0.00 0.00 30 1005.2
20260503185517 71 43 3.5 10.4 0.00 0.00 0.00 35 1005.3
20260503185021 71 331 5.2 20.0 0.00 0.00 0.00 32 1005.3
20260503184536 71 337 10.4 20.0 0.00 0.00 0.00 29 1005.3
20260503184018 71 263 5.2 12.2 0.00 0.00 0.00 31 1005.4
20260503183516 71 340 4.3 13.9 0.00 0.00 0.00 37 1005.5
20260503183032 72 350 4.3 13.9 0.00 0.00 0.00 34 1005.4
20260503182513 71 335 6.1 13.9 0.00 0.00 0.00 30 1005.3
20260503182017 71 326 5.2 12.2 0.00 0.00 0.00 34 1005.4
20260503181534 71 294 6.1 12.2 0.00 0.00 0.00 36 1005.4
20260503181018 71 290 3.5 14.8 0.00 0.00 0.00 41 1005.6
20260503180517 71 318 5.2 14.8 0.00 0.00 0.00 37 1005.5
20260503180034 71 333 5.2 11.3 0.00 0.00 0.00 37 1005.4
20260503175515 71 188 3.5 14.8 0.00 0.00 0.00 36 1005.5
20260503175018 70 0 6.1 14.8 0.00 0.00 0.00 37 1005.4
20260503174533 70 198 3.5 14.8 0.00 0.00 0.00 39 1005.5
20260503174017 70 26 1.7 14.8 0.00 0.00 0.00 42 1005.7
20260503173514 70 7 5.2 14.8 0.00 0.00 0.00 39 1005.8
20260503173049 70 332 4.3 16.5 0.00 0.00 0.00 42 1005.7
20260503172517 70 293 6.1 16.5 0.00 0.00 0.00 34 1005.7
20260503172016 69 285 5.2 15.6 0.00 0.00 0.00 37 1005.8
20260503171608 69 328 2.6 11.3 0.00 0.00 0.00 37 1005.8
20260503171535 69 328 2.6 11.3 0.00 0.00 0.00 37 1005.8
20260503171015 69 350 4.3 11.3 0.00 0.00 0.00 35 1005.9
20260503170518 68 350 5.2 13.0 0.00 0.00 0.00 35 1005.8
20260503150516 64 40 2.6 4.3 0.00 0.00 0.00 56 1005.5
20260503131018 59 219 2.6 7.0 0.00 0.00 0.00 49 1005.2
20260503130518 58 209 2.6 7.0 0.00 0.00 0.00 50 1005.3
20260503110517 53 0 0.9 5.2 0.00 0.00 0.00 55 1004.5
20260503081549 56 219 1.7 7.8 0.00 0.00 0.00 54 1005.3
20260503081017 56 199 2.6 7.8 0.00 0.00 0.00 53 1005.2
20260503080517 56 0 1.7 7.8 0.00 0.00 0.00 54 1005.3
20260503072517 56 145 1.7 5.2 0.00 0.00 0.00 54 1006.1
20260503072020 56 209 2.6 5.2 0.00 0.00 0.00 54 1006.1
20260503071541 56 197 2.6 7.0 0.00 0.00 0.00 53 1006.2
20260503071019 55 251 2.6 7.0 0.00 0.00 0.00 53 1006.3
20260503070517 55 195 2.6 8.7 0.00 0.00 0.00 53 1006.3
20260503055023 56 207 1.7 5.2 0.00 0.00 0.00 53 1007.6
20260503054539 56 193 1.7 7.0 0.00 0.00 0.00 53 1007.6
20260503054019 56 170 1.7 7.0 0.00 0.00 0.00 53 1007.6
20260503053516 57 181 0.9 6.1 0.00 0.00 0.00 53 1007.6
20260503053030 57 182 1.7 6.1 0.00 0.00 0.00 52 1007.7
20260503052524 57 184 0.9 2.6 0.00 0.00 0.00 52 1007.7
20260503052017 57 0 0.0 3.5 0.00 0.00 0.00 51 1007.8
20260503051530 57 0 0.0 3.5 0.00 0.00 0.00 51 1007.8
20260503051016 58 184 1.7 3.5 0.00 0.00 0.00 50 1007.9
20260503050517 58 182 0.9 3.5 0.00 0.00 0.00 50 1008.0
20260503050032 58 180 0.9 3.5 0.00 0.00 0.00 49 1007.9
20260503045517 58 0 0.0 3.5 0.00 0.00 0.00 49 1008.0
20260503045020 58 0 0.0 4.3 0.00 0.00 0.00 48 1008.1
20260503044541 58 180 1.7 4.3 0.00 0.00 0.00 48 1008.2
20260503044016 58 183 1.7 3.5 0.00 0.00 0.00 48 1008.2
20260503043516 59 190 0.9 5.2 0.00 0.00 0.00 48 1008.4
20260503043031 59 188 0.9 5.2 0.00 0.00 0.00 47 1008.4
20260503042516 59 170 1.7 6.1 0.00 0.00 0.00 47 1008.6
20260503042016 59 168 1.7 6.1 0.00 0.00 0.00 47 1008.6
20260503041538 59 198 1.7 6.1 0.00 0.00 0.00 47 1008.8
20260503041016 60 172 0.9 6.1 0.00 0.00 0.00 47 1008.6
20260503040515 60 0 0.9 6.1 0.00 0.00 0.00 46 1008.7
20260503040033 60 205 0.9 3.5 0.00 0.00 0.00 45 1008.9
20260503035518 60 174 1.7 3.5 0.00 0.00 0.00 44 1008.9
20260503035018 60 201 1.7 3.5 0.00 0.00 0.00 44 1009.0
20260503034535 60 195 0.9 3.5 0.00 0.00 0.00 43 1009.2
20260503034016 61 0 0.9 3.5 0.00 0.00 0.00 43 1009.2
20260503033521 61 195 0.9 5.2 0.00 0.00 0.00 42 1009.3
20260503033031 61 0 0.9 5.2 0.00 0.00 0.00 41 1009.2
20260503032516 61 201 1.7 5.2 0.00 0.00 0.00 41 1009.4
20260503032016 62 0 1.7 5.2 0.00 0.00 0.00 41 1009.5
20260503031539 62 208 1.7 6.1 0.00 0.00 0.00 41 1009.6
20260503031016 62 205 2.6 7.8 0.00 0.00 0.00 41 1009.7
20260503030522 62 257 3.5 7.8 0.00 0.00 0.00 40 1009.8
20260503030034 62 205 3.5 9.6 0.00 0.00 0.00 39 1009.8
20260503025518 62 241 5.2 9.6 0.00 0.00 0.00 40 1010.0
20260503025016 62 246 2.6 11.3 0.00 0.00 0.00 40 1010.1